TimePST,TemperatureF,Dew PointF,Humidity,Sea Level PressureIn,VisibilityMPH,Wind Direction,Wind SpeedMPH,Gust SpeedMPH,PrecipitationIn,Events,Conditions,WindDirDegrees,DateUTC
12:53 AM,30.9,28.0,89,30.11,7.0,Calm,Calm,-,N/A,,Clear,0,2013-12-06 08:53:00
1:53 AM,30.0,28.0,92,30.12,6.0,Calm,Calm,-,N/A,,Clear,0,2013-12-06 09:53:00
2:53 AM,28.0,26.1,92,30.11,6.0,SE,3.5,-,N/A,,Clear,130,2013-12-06 10:53:00
3:53 AM,30.0,27.0,88,30.11,7.0,Calm,Calm,-,N/A,,Mostly Cloudy,0,2013-12-06 11:53:00
4:53 AM,30.9,28.0,89,30.12,7.0,East,4.6,-,N/A,,Mostly Cloudy,100,2013-12-06 12:53:00
5:53 AM,34.0,30.9,89,30.13,10.0,ESE,3.5,-,N/A,,Overcast,110,2013-12-06 13:53:00
6:53 AM,34.0,30.9,89,30.14,10.0,Calm,Calm,-,N/A,,Mostly Cloudy,0,2013-12-06 14:53:00
7:24 AM,37.4,33.8,87,30.14,10.0,Calm,Calm,-,N/A,,Overcast,0,2013-12-06 15:24:00
7:53 AM,42.1,36.0,79,30.16,10.0,Calm,Calm,-,N/A,,Overcast,0,2013-12-06 15:53:00
8:53 AM,46.9,37.0,68,30.18,10.0,Calm,Calm,-,N/A,,Mostly Cloudy,0,2013-12-06 16:53:00
9:12 AM,46.4,37.4,71,30.17,10.0,SSE,3.5,-,N/A,,Overcast,160,2013-12-06 17:12:00
9:53 AM,48.0,35.1,61,30.18,10.0,SSE,4.6,-,N/A,,Mostly Cloudy,160,2013-12-06 17:53:00
10:53 AM,50.0,34.0,54,30.17,10.0,SSW,5.8,-,N/A,,Overcast,210,2013-12-06 18:53:00
11:53 AM,52.0,32.0,47,30.14,10.0,South,9.2,-,N/A,,Overcast,180,2013-12-06 19:53:00
12:53 PM,52.0,30.9,45,30.12,10.0,SW,3.5,-,N/A,,Mostly Cloudy,220,2013-12-06 20:53:00
1:53 PM,52.0,33.1,49,30.10,10.0,SW,6.9,-,N/A,,Overcast,230,2013-12-06 21:53:00
2:53 PM,52.0,33.1,49,30.10,10.0,WSW,9.2,-,N/A,,Overcast,240,2013-12-06 22:53:00
3:53 PM,48.9,33.1,54,30.11,10.0,WSW,9.2,-,N/A,,Clear,240,2013-12-06 23:53:00
4:53 PM,45.0,32.0,60,30.12,10.0,SSW,4.6,-,N/A,,Clear,210,2013-12-07 00:53:00
5:53 PM,42.1,32.0,67,30.13,10.0,Calm,Calm,-,N/A,,Clear,0,2013-12-07 01:53:00
6:53 PM,37.9,30.9,76,30.14,10.0,Calm,Calm,-,N/A,,Clear,0,2013-12-07 02:53:00
7:53 PM,36.0,30.9,82,30.14,10.0,Calm,Calm,-,N/A,,Mostly Cloudy,0,2013-12-07 03:53:00
8:53 PM,34.0,30.0,85,30.14,10.0,Calm,Calm,-,N/A,,Partly Cloudy,0,2013-12-07 04:53:00
9:53 PM,35.1,30.9,85,30.13,9.0,Calm,Calm,-,N/A,,Mostly Cloudy,0,2013-12-07 05:53:00
10:53 PM,37.0,32.0,82,30.12,6.0,East,3.5,-,N/A,,Haze,80,2013-12-07 06:53:00
11:39 PM,41.0,33.8,76,30.12,9.0,Calm,Calm,-,N/A,,Overcast,0,2013-12-07 07:39:00
11:53 PM,39.9,34.0,79,30.12,10.0,Calm,Calm,-,N/A,,Mostly Cloudy,0,2013-12-07 07:53:00